Regional Weather Roundup
Issued by NWS

Current Version | Previous Version | Text Only | Print | Product List | Glossary On
Versions: 1 2 3 4 5 6 7 8 9 10 11 12 13 14 15 16 17 18 19 20 21 22 23 24 25 26 27 28 29 30 31 32 33 34 35 36 37 38 39 40
000
ASCA42 TJSJ 290310
RWRPR
PUERTO RICO/U.S. VIRGIN ISLANDS HOURLY WEATHER ROUNDUP
NATIONAL WEATHER SERVICE SAN JUAN PR
1100 PM AST FRI FEB 28 2020

PRZ001>002-007>008-010-290400-
PUERTO RICO

CITY           SKY/WX    TMP DP  RH WIND       PRES   REMARKS
SAN JUAN LMM   PTCLDY    75  70  83 SE3       30.10R
AGUADILLA      MOCLDY    75 N/A N/A E10       30.11S
CEIBA          CLEAR     79  72  78 E6        30.11S
$$

VIZ001>002-290400-
U.S. VIRGIN ISLANDS

CITY           SKY/WX    TMP DP  RH WIND       PRES   REMARKS
CHARLOTTE AMA  CLEAR     75  66  73 E5        30.10R
CHRISTIANSTED  CLEAR     73  66  78 N5        30.10R
$$

HOURLY WEATHER ROUNDUP FOR THE NEWS MEDIA

CITY           SKY/WX    TMP DP  RH WIND       PRES   REMARKS
ORLANDO        FAIR      52  36  54 W8        30.26R
NEW YORK       FAIR      37  11  34 W14       29.86R WCI  28
NEWARK         FAIR      36   8  31 W12       29.85R WCI  28
CHICAGO        FAIR      24   5  44 NW8       30.11R WCI  15
HARTFORD       FAIR      28  14  55 CALM      29.83R
DALLAS         MOCLDY    55  31  39 SE3       30.31R
PHILADELPHIA   FAIR      38  12  34 W9        29.88R WCI  31
LOS ANGELES    CLOUDY    71  35  26 SW3       30.08R
WASHINGTON DC  FAIR      35  17  47 W13       29.93R WCI  26



USA.gov is the U.S. government's official web portal to all federal, state and local government web resources and services.